Radiation Dose at Monitoring Post of Fukushima Daini Nuclear Power Station
Date,Time,MP-1(microSv/h),MP-2(microSv/h),MP-3(microSv/h),MP-4(microSv/h),MP-5(microSv/h),MP-6(microSv/h),MP-7(microSv/h),Wind Direction,Wind Velocity(m/s),Rain
2022/02/04,00:00,0.161,0.148,0.233,0.225,0.225,0.128,0.081,west-southwest,1.9,No
2022/02/04,00:10,0.161,0.147,0.232,0.224,0.225,0.128,0.081,southwest,1.0,No
2022/02/04,00:20,0.161,0.148,0.232,0.225,0.226,0.128,0.082,west-southwest,0.8,No
2022/02/04,00:30,0.160,0.149,0.232,0.224,0.227,0.127,0.081,southwest,0.7,No
2022/02/04,00:40,0.161,0.148,0.233,0.225,0.226,0.128,0.081,-,CALM,No
2022/02/04,00:50,0.161,0.149,0.233,0.225,0.225,0.128,0.081,south-southwest,1.6,No
2022/02/04,01:00,0.161,0.148,0.233,0.225,0.225,0.127,0.081,south-southwest,2.7,No
2022/02/04,01:10,0.161,0.149,0.232,0.224,0.226,0.127,0.081,south-southwest,3.0,No
2022/02/04,01:20,0.160,0.148,0.232,0.225,0.226,0.128,0.082,south-southwest,3.8,No
2022/02/04,01:30,0.161,0.148,0.233,0.225,0.226,0.128,0.080,southwest,2.5,No
2022/02/04,01:40,0.161,0.149,0.232,0.225,0.226,0.128,0.081,southwest,2.1,No
2022/02/04,01:50,0.162,0.148,0.232,0.226,0.225,0.127,0.080,southwest,2.7,No
2022/02/04,02:00,0.162,0.148,0.232,0.225,0.227,0.127,0.080,west-southwest,3.3,No
2022/02/04,02:10,0.161,0.148,0.233,0.225,0.225,0.127,0.081,west,3.5,No
2022/02/04,02:20,0.161,0.148,0.233,0.225,0.226,0.127,0.081,west,3.8,No
2022/02/04,02:30,0.160,0.148,0.233,0.224,0.226,0.128,0.081,southwest,3.5,No
2022/02/04,02:40,0.161,0.149,0.233,0.225,0.225,0.129,0.080,south-southwest,1.9,No
2022/02/04,02:50,0.161,0.147,0.232,0.225,0.225,0.127,0.081,south,1.1,No
2022/02/04,03:00,0.161,0.148,0.234,0.225,0.226,0.126,0.081,south-southwest,2.2,No
2022/02/04,03:10,0.162,0.148,0.233,0.224,0.225,0.127,0.081,south-southwest,1.8,No
2022/02/04,03:20,0.161,0.149,0.233,0.226,0.226,0.128,0.081,southwest,1.3,No
2022/02/04,03:30,0.160,0.148,0.234,0.226,0.226,0.127,0.081,southwest,1.9,No
2022/02/04,03:40,0.160,0.148,0.234,0.225,0.225,0.128,0.081,southwest,4.1,No
2022/02/04,03:50,0.162,0.147,0.232,0.225,0.225,0.127,0.081,southwest,3.8,No
2022/02/04,04:00,0.161,0.148,0.233,0.225,0.225,0.127,0.082,southwest,4.9,No
2022/02/04,04:10,0.160,0.147,0.232,0.225,0.226,0.127,0.081,southwest,4.1,No
2022/02/04,04:20,0.161,0.148,0.232,0.225,0.225,0.128,0.081,southwest,4.7,No
2022/02/04,04:30,0.161,0.147,0.233,0.225,0.226,0.127,0.080,southwest,4.4,No
2022/02/04,04:40,0.161,0.147,0.231,0.225,0.225,0.128,0.081,southwest,4.3,No
2022/02/04,04:50,0.161,0.149,0.233,0.224,0.227,0.128,0.081,southwest,3.2,No
2022/02/04,05:00,0.161,0.148,0.233,0.226,0.226,0.127,0.082,south-southwest,2.9,No
2022/02/04,05:10,0.161,0.148,0.233,0.225,0.225,0.127,0.080,south-southwest,2.2,No
2022/02/04,05:20,0.161,0.148,0.232,0.224,0.225,0.128,0.081,south-southwest,2.5,No
2022/02/04,05:30,0.160,0.148,0.232,0.225,0.227,0.127,0.081,southwest,2.1,No
2022/02/04,05:40,0.161,0.149,0.232,0.225,0.226,0.127,0.081,west-southwest,3.3,No
2022/02/04,05:50,0.160,0.148,0.232,0.225,0.225,0.126,0.081,west,3.3,No
2022/02/04,06:00,0.161,0.149,0.233,0.226,0.225,0.128,0.081,west-northwest,3.5,No
2022/02/04,06:10,0.162,0.148,0.232,0.225,0.225,0.127,0.081,west,3.0,No
2022/02/04,06:20,0.161,0.149,0.234,0.224,0.225,0.128,0.082,west,2.1,No
2022/02/04,06:30,0.161,0.148,0.232,0.225,0.226,0.128,0.081,west,3.0,No
2022/02/04,06:40,0.161,0.148,0.233,0.225,0.226,0.127,0.081,west,2.9,No
2022/02/04,06:50,0.161,0.147,0.233,0.225,0.226,0.127,0.081,west,2.2,No
2022/02/04,07:00,0.162,0.149,0.232,0.225,0.225,0.127,0.081,west-northwest,1.0,No
2022/02/04,07:10,0.162,0.148,0.234,0.225,0.224,0.127,0.081,northwest,1.6,No
2022/02/04,07:20,0.161,0.148,0.233,0.225,0.226,0.128,0.081,north-northwest,1.3,No
2022/02/04,07:30,0.161,0.148,0.232,0.224,0.226,0.128,0.080,-,CALM,No
2022/02/04,07:40,0.161,0.149,0.231,0.224,0.226,0.127,0.081,-,CALM,No
2022/02/04,07:50,0.160,0.148,0.233,0.225,0.225,0.127,0.081,west-northwest,0.7,No
2022/02/04,08:00,0.161,0.148,0.231,0.224,0.225,0.127,0.080,west-southwest,1.6,No
2022/02/04,08:10,0.162,0.148,0.231,0.226,0.225,0.127,0.080,west-southwest,2.9,No
2022/02/04,08:20,0.160,0.147,0.233,0.225,0.227,0.128,0.081,west-southwest,3.0,No
2022/02/04,08:30,0.161,0.148,0.234,0.224,0.226,0.127,0.081,west-southwest,3.3,No
2022/02/04,08:40,0.160,0.148,0.232,0.224,0.225,0.127,0.081,west-southwest,2.9,No
2022/02/04,08:50,0.161,0.149,0.231,0.224,0.225,0.128,0.080,west-southwest,2.2,No
2022/02/04,09:00,0.160,0.149,0.232,0.225,0.227,0.128,0.080,southwest,2.2,No
2022/02/04,09:10,0.161,0.148,0.232,0.222,0.226,0.129,0.081,west-southwest,3.0,No
2022/02/04,09:20,0.161,0.148,0.232,0.224,0.225,0.127,0.082,southwest,3.5,No
2022/02/04,09:30,0.161,0.148,0.232,0.225,0.226,0.126,0.081,southwest,2.2,No
2022/02/04,09:40,0.161,0.148,0.231,0.225,0.227,0.128,0.081,west,1.0,No
2022/02/04,09:50,0.161,0.148,0.231,0.224,0.225,0.128,0.081,west-southwest,1.6,No
2022/02/04,10:00,0.161,0.148,0.232,0.226,0.226,0.127,0.080,northwest,1.4,No
2022/02/04,10:10,0.161,0.149,0.233,0.226,0.227,0.127,0.081,northwest,3.5,No
2022/02/04,10:20,0.161,0.148,0.231,0.224,0.226,0.127,0.081,north-northwest,5.7,No
2022/02/04,10:30,0.160,0.148,0.232,0.224,0.225,0.128,0.081,west-northwest,4.1,No
2022/02/04,10:40,0.161,0.148,0.232,0.225,0.226,0.127,0.081,west-northwest,3.0,No
2022/02/04,10:50,0.162,0.149,0.233,0.225,0.227,0.127,0.081,west-northwest,5.2,No
2022/02/04,11:00,0.161,0.148,0.232,0.225,0.226,0.127,0.081,west-northwest,3.8,No
2022/02/04,11:10,0.161,0.148,0.232,0.225,0.227,0.127,0.080,west-northwest,8.3,No
2022/02/04,11:20,0.161,0.148,0.231,0.225,0.225,0.127,0.081,west-northwest,9.2,No
2022/02/04,11:30,0.160,0.148,0.232,0.224,0.226,0.128,0.081,west-northwest,6.6,No
2022/02/04,11:40,0.162,0.148,0.232,0.224,0.228,0.127,0.080,west,4.4,No
2022/02/04,11:50,0.161,0.148,0.232,0.226,0.226,0.128,0.081,west-southwest,4.6,No
2022/02/04,12:00,0.161,0.149,0.232,0.225,0.226,0.127,0.081,west,5.5,No
2022/02/04,12:10,0.161,0.148,0.231,0.226,0.226,0.128,0.081,west,4.4,No
2022/02/04,12:20,0.162,0.148,0.231,0.225,0.224,0.128,0.080,west-northwest,4.8,No
2022/02/04,12:30,0.162,0.148,0.233,0.224,0.227,0.127,0.080,west-northwest,5.2,No
2022/02/04,12:40,0.161,0.148,0.232,0.225,0.226,0.128,0.081,west-northwest,5.9,No
2022/02/04,12:50,0.161,0.149,0.231,0.224,0.225,0.128,0.081,west-northwest,7.2,No
2022/02/04,13:00,0.161,0.149,0.233,0.225,0.227,0.128,0.081,northwest,6.6,No
2022/02/04,13:10,0.161,0.148,0.233,0.226,0.225,0.129,0.081,northwest,7.5,No
2022/02/04,13:20,0.161,0.148,0.233,0.225,0.227,0.128,0.081,west-northwest,4.4,No
2022/02/04,13:30,0.160,0.148,0.233,0.224,0.227,0.128,0.081,west-northwest,3.7,No
2022/02/04,13:40,0.160,0.148,0.233,0.225,0.227,0.128,0.081,west-northwest,4.7,No
2022/02/04,13:50,0.162,0.148,0.232,0.225,0.227,0.127,0.081,west-northwest,4.4,No
2022/02/04,14:00,0.161,0.148,0.232,0.224,0.226,0.128,0.081,west-northwest,5.1,No
2022/02/04,14:10,0.161,0.148,0.233,0.225,0.224,0.128,0.081,west-northwest,5.7,No
2022/02/04,14:20,0.161,0.148,0.231,0.225,0.227,0.127,0.081,west-northwest,4.3,No
2022/02/04,14:30,0.160,0.148,0.233,0.224,0.226,0.127,0.081,west-northwest,4.1,No
2022/02/04,14:40,0.160,0.147,0.234,0.225,0.227,0.127,0.080,west,6.0,No
2022/02/04,14:50,0.161,0.148,0.233,0.225,0.227,0.127,0.080,west-southwest,5.4,No
2022/02/04,15:00,0.161,0.149,0.233,0.226,0.226,0.127,0.080,northwest,3.3,No
2022/02/04,15:10,0.161,0.148,0.232,0.225,0.226,0.127,0.081,west-northwest,6.5,No
2022/02/04,15:20,0.160,0.147,0.232,0.226,0.228,0.128,0.081,west-northwest,4.9,No
2022/02/04,15:30,0.161,0.149,0.233,0.226,0.227,0.127,0.081,northwest,5.5,No
2022/02/04,15:40,0.161,0.149,0.233,0.225,0.226,0.127,0.081,west-northwest,6.5,No
2022/02/04,15:50,0.161,0.148,0.234,0.226,0.227,0.128,0.081,west-northwest,4.1,No
2022/02/04,16:00,0.161,0.149,0.233,0.226,0.226,0.127,0.081,west-northwest,3.0,No
2022/02/04,16:10,0.162,0.149,0.232,0.225,0.226,0.128,0.081,north-northwest,5.1,No
2022/02/04,16:20,0.161,0.149,0.234,0.225,0.226,0.128,0.081,north-northwest,6.1,No
2022/02/04,16:30,0.161,0.148,0.232,0.226,0.226,0.128,0.081,north,5.7,No
2022/02/04,16:40,0.161,0.149,0.233,0.226,0.225,0.128,0.081,north-northwest,6.6,No
2022/02/04,16:50,0.160,0.148,0.234,0.226,0.226,0.127,0.081,north-northwest,6.6,No
2022/02/04,17:00,0.162,0.148,0.234,0.225,0.226,0.128,0.081,north-northwest,7.0,No
2022/02/04,17:10,0.162,0.148,0.234,0.225,0.226,0.128,0.081,north-northwest,6.6,No
2022/02/04,17:20,0.161,0.148,0.234,0.225,0.227,0.128,0.081,north,3.5,No
2022/02/04,17:30,0.162,0.149,0.234,0.226,0.226,0.128,0.081,north,3.5,No
2022/02/04,17:40,0.163,0.149,0.234,0.226,0.227,0.128,0.081,north-northwest,4.3,No
2022/02/04,17:50,0.161,0.148,0.233,0.225,0.226,0.127,0.081,north-northwest,4.3,No
2022/02/04,18:00,0.162,0.148,0.233,0.226,0.226,0.128,0.081,north-northwest,4.4,No
2022/02/04,18:10,0.161,0.148,0.235,0.226,0.225,0.128,0.081,north-northwest,5.2,No
2022/02/04,18:20,0.160,0.148,0.234,0.225,0.226,0.128,0.081,north-northwest,4.9,No
2022/02/04,18:30,0.161,0.150,0.234,0.225,0.226,0.128,0.081,north-northwest,5.2,No
2022/02/04,18:40,0.161,0.148,0.232,0.225,0.227,0.127,0.082,north-northwest,5.5,No
2022/02/04,18:50,0.161,0.148,0.234,0.226,0.225,0.127,0.081,north-northwest,5.5,No
2022/02/04,19:00,0.161,0.148,0.232,0.225,0.226,0.128,0.081,north-northwest,5.9,No
2022/02/04,19:10,0.161,0.148,0.233,0.225,0.226,0.128,0.080,north-northwest,5.5,No
2022/02/04,19:20,0.162,0.148,0.232,0.225,0.226,0.128,0.081,north-northwest,4.9,No
2022/02/04,19:30,0.160,0.148,0.233,0.226,0.227,0.128,0.081,north-northwest,4.3,No
2022/02/04,19:40,0.162,0.149,0.234,0.225,0.227,0.128,0.081,north-northwest,3.5,No
2022/02/04,19:50,0.162,0.148,0.234,0.225,0.226,0.127,0.082,north-northwest,3.3,No
2022/02/04,20:00,0.161,0.149,0.233,0.226,0.227,0.128,0.081,north-northwest,2.5,No
2022/02/04,20:10,0.161,0.149,0.233,0.226,0.227,0.127,0.081,north,2.7,No
2022/02/04,20:20,0.161,0.148,0.234,0.225,0.227,0.128,0.081,north-northwest,2.4,No
2022/02/04,20:30,0.161,0.148,0.233,0.225,0.226,0.128,0.082,north,2.2,No
2022/02/04,20:40,0.162,0.148,0.234,0.226,0.226,0.127,0.081,north-northwest,2.5,No
2022/02/04,20:50,0.161,0.148,0.233,0.225,0.227,0.129,0.081,north-northwest,2.4,No
2022/02/04,21:00,0.161,0.148,0.232,0.226,0.226,0.127,0.081,north-northwest,1.9,No
2022/02/04,21:10,0.160,0.148,0.233,0.226,0.226,0.128,0.082,north-northwest,1.3,No
2022/02/04,21:20,0.161,0.147,0.233,0.225,0.227,0.128,0.081,north,0.8,No
2022/02/04,21:30,0.161,0.148,0.232,0.226,0.226,0.128,0.081,-,CALM,No
2022/02/04,21:40,0.161,0.149,0.234,0.225,0.225,0.128,0.081,east,1.0,No
2022/02/04,21:50,0.161,0.148,0.233,0.225,0.227,0.128,0.081,east,1.0,No
2022/02/04,22:00,0.160,0.149,0.232,0.226,0.226,0.127,0.082,east,1.3,No
2022/02/04,22:10,0.162,0.147,0.234,0.226,0.226,0.128,0.081,east-southeast,0.7,No
2022/02/04,22:20,0.161,0.148,0.234,0.227,0.226,0.128,0.081,-,CALM,No
2022/02/04,22:30,0.162,0.149,0.233,0.226,0.226,0.128,0.082,-,CALM,No
2022/02/04,22:40,0.161,0.149,0.233,0.225,0.226,0.128,0.081,-,CALM,No
2022/02/04,22:50,0.162,0.150,0.235,0.225,0.227,0.128,0.081,south,0.7,No
2022/02/04,23:00,0.161,0.149,0.233,0.225,0.226,0.128,0.082,south-southwest,1.1,No
2022/02/04,23:10,0.161,0.148,0.235,0.226,0.226,0.128,0.081,southwest,1.8,No
2022/02/04,23:20,0.161,0.148,0.232,0.226,0.226,0.128,0.082,southwest,2.7,No
2022/02/04,23:30,0.162,0.149,0.233,0.226,0.226,0.128,0.081,south-southwest,2.5,No
2022/02/04,23:40,0.161,0.149,0.234,0.226,0.226,0.129,0.082,southwest,2.1,No
2022/02/04,23:50,0.162,0.149,0.233,0.226,0.226,0.128,0.082,southwest,2.2,No
